Location: Buch
(49.7331°N, 12.1098°E)
Time: 00:56:20
(UTC+00:00)

Lacrosse 5 - Pass Details

Date: 12 May 2021
Orbit: 715 x 724 km, 57.0° (Epoch: 15 June)

Event Time Altitude Azimuth Distance (km) Brightness Sun altitude
Exits shadow 23:03:08 20° 109° (ESE) 1,642 3.5 -21.9°
Drops below altitude 10° 23:05:52 10° 78° (ENE) 2,204 4.5 -21.9°
Sets 23:08:45 0° 62° (ENE) 3,130 5.5 -21.9°
